Tracking 19562 objects as of 23-Mar-2019
HD Live streaming from Space Station
objects crossing your sky now

COSMOS 1827

Track COSMOS 1827 now!
10-day predictions
COSMOS 1827 is classified as:


NORAD ID: 17582
Int'l Code: 1987-026A
Perigee: 1,399.9 km
Apogee: 1,419.7 km
Inclination: 82.6 °
Period: 113.8 minutes
Semi major axis: 7780 km
RCS: 0.9685 m2 (medium)
Launch date: March 13, 1987
Source: Commonwealth of Independent States (former USSR) (CIS)
Launch site: PLESETSK MISSILE AND SPACE COMPLEX (PKMTR)
aabbcc
Your satellite tracking list
Your tracking list is empty




NASA's NSSDC Master Catalog

Two Line Element Set (TLE):
1 17582U 87026A   19081.95694445 +.00000006 +00000-0 -25444-4 0  9991
2 17582 082.5651 088.9768 0012765 054.7852 305.4434 12.64927391478455
Source of the keplerian elements: AFSPC